Tracking 26922 objects as of 1-Feb-2023
HD Live streaming from Space Station
objects crossing your sky now

CZ-6A DEB

Track CZ-6A DEB now!
10-day predictions


NORAD ID: 54317
Int'l Code: 2022-151BL
Perigee: 585.8 km
Apogee: 844.5 km
Inclination: 98.7 °
Period: 98.9 minutes
Semi major axis: 7086 km
RCS: Unknown
Launch date: November 11, 2022
Source: People's Republic of China (PRC)
Launch site: Taiyaun Space Center, China (TSC)

Note: This is SATELLITE DEBRIS
Your satellite tracking list
Your tracking list is empty




NASA's NSSDC Master Catalog

Two Line Element Set (TLE):
1 54317U 22151BL  23031.50692915  .00017898  00000-0  32931-2 0  9990
2 54317  98.7093  44.5028 0182515  39.0710 322.3505 14.55410368 11125
Source of the keplerian elements: AFSPC